This is the latest recevied weather packets stored in our database for station/object VE7GEL. If no packets are shown the sender has not sent any weather packets the latest 10 day(s).
| Time | Temp. | Humidity | Pressure | Rain* | Wind** | Luminosity | Snow |
|---|---|---|---|---|---|---|---|
| 1777837531 | 15.56° C | 71% | 1013.4 hPa | 0 mm | - | 44 W/m² | - |
| 1777836629 | 15.56° C | 72% | 1013.5 hPa | 0 mm | - | 42 W/m² | - |
| 1777835726 | 15° C | 74% | 1013.6 hPa | 0 mm | - | 40 W/m² | - |
| 1777835702 | 15° C | 74% | 1014 hPa | 0 mm | - | 40 W/m² | - |
| 1777834825 | 15° C | 75% | 1013.8 hPa | 0 mm | - | 36 W/m² | - |
| 1777833925 | 15° C | 75% | 1013.9 hPa | 0 mm | - | 33 W/m² | - |
| 1777833027 | 14.44° C | 78% | 1014.1 hPa | 0 mm | - | 30 W/m² | - |
| 1777832125 | 14.44° C | 78% | 1014.2 hPa | 0 mm | - | 30 W/m² | - |
| 1777832103 | 14.44° C | 79% | 1014.6 hPa | 0 mm | - | 30 W/m² | - |
| 1777831225 | 14.44° C | 80% | 1014.4 hPa | 0 mm | - | 35 W/m² | - |
| 1777830325 | 14.44° C | 78% | 1014.5 hPa | 0 mm | - | 45 W/m² | - |
| 1777830303 | 14.44° C | 78% | 1014.8 hPa | 0 mm | - | 46 W/m² | - |
| 1777829423 | 15° C | 74% | 1014.4 hPa | 0 mm | - | 29 W/m² | - |
| 1777828524 | 15° C | 71% | 1014.5 hPa | 0 mm | - | 31 W/m² | - |
| 1777828504 | 15° C | 71% | 1014.8 hPa | 0 mm | - | 31 W/m² | - |
| 1777827621 | 15° C | 71% | 1014.5 hPa | 0 mm | - | 30 W/m² | - |
| 1777826721 | 15° C | 69% | 1014.7 hPa | 0 mm | - | 26 W/m² | - |
| 1777826703 | 15° C | 69% | 1015 hPa | 0 mm | - | 26 W/m² | - |
| 1777825821 | 15° C | 69% | 1014.8 hPa | 0 mm | - | 22 W/m² | - |
| 1777824920 | 15° C | 69% | 1014.9 hPa | 0 mm | - | 25 W/m² | - |
| 1777824020 | 14.44° C | 68% | 1015 hPa | 0 mm | - | 27 W/m² | - |
| 1777823107 | 14.44° C | 71% | 1015 hPa | 0 mm | - | 24 W/m² | - |
| 1777823102 | 14.44° C | 71% | 1015.3 hPa | 0 mm | - | 24 W/m² | - |
| 1777822208 | 14.44° C | 74% | 1014.9 hPa | 0 mm | - | 22 W/m² | - |
| 1777821309 | 15° C | 73% | 1015 hPa | 0 mm | - | 24 W/m² | - |
* Rain latest hour (hover to see other rain measurements)
** Current wind speed in m/s (hover to see current wind gust speed)